x

Otis Air National Guard Base (72506) Weather Station

12:55pm - Fri 22nd Sep 2017 All times are EDT. -4 hours from GMT.

  • Wind
    22mph, 35mph gusts
  • 空気 Temp 59°f
  • Sea Pressure 1012.5mb
  • Otis Air National Guard Base
  • Otis Air National Guard Base

More Historic Weather Station data

Upgrade to MSW Pro to gain access to the past 30 days of data for over 8000 Wavebouys and Weather Stations around the globe.

Join

Comparision Forecast

View Surf forecast
   
Fri 09/22 12:55pm 22 35 mph 1012.5mb 59f
12:15pm 23 36 mph 1012.5mb 59f
11:55am 27 32 mph 1012.5mb 59f
11:15am 23 37 mph 1012.5mb 59f
10:55am 18 36 mph 1012.5mb 59f
10:15am 22 37 mph 1012.5mb 59f
9:55am 22 39 mph 1012.5mb 59f
9:15am 21 32 mph 1012.5mb 59f
8:55am 24 37 mph 1012.2mb 59f
8:15am 21 38 mph 1012.2mb 59f
7:55am 24 41 mph 1011.9mb 59f
7:15am 28 37 mph 1011.5mb 59f
6:55am 30 37 mph 1011.9mb 59f
6:15am 21 39 mph 1011.9mb 59f
5:55am 25 39 mph 1011.9mb 57f
4:55am 24 38 mph 1011.5mb 57f
3:55am 20 37 mph 1011.9mb 57f
3:15am 17 32 mph 1011.9mb 59f
2:55am 18 38 mph 1012.2mb 59f
2:15am 21 32 mph 1012.2mb 59f
1:55am 23 36 mph 1012.5mb 59f
1:15am 21 32 mph 1012.9mb 59f
12:55am 23 33 mph 1012.5mb 59f
12:15am 18 33 mph 1012.9mb 59f
Thu 09/21 11:55pm 21 32 mph 1012.5mb 59f
11:15pm 21 38 mph 1012.9mb 59f
10:55pm 24 37 mph 1012.9mb 61f
10:15pm 20 30 mph 1012.9mb 61f
9:55pm 18 37 mph 1012.9mb 61f
9:15pm 24 36 mph 1012.9mb 63f
8:55pm 24 33 mph 1012.9mb 63f
8:15pm 23 37 mph 1013.2mb 63f
7:55pm 27 38 mph 1013.2mb 63f
7:15pm 21 37 mph 1012.9mb 63f
6:55pm 27 41 mph 1013.2mb 61f
6:15pm 21 43 mph 1013.5mb 59f
5:55pm 24 36 mph 1013.5mb 61f
5:15pm 20 37 mph 1013.2mb 64f
4:55pm 24 35 mph 1013.2mb 64f
4:15pm 21 43 mph 1012.9mb 63f
3:55pm 21 36 mph 1012.9mb 63f
3:15pm 23 33 mph 1012.9mb 63f
2:55pm 21 38 mph 1012.9mb 63f
2:15pm 18 35 mph 1012.9mb 63f
1:55pm 22 33 mph 1012.9mb 63f
1:15pm 17 33 mph 1012.9mb 61f
12:55pm 17 33 mph 1013.2mb 61f
12:15pm 22 36 mph 1013.2mb 63f
8:55am 22 45 mph 1011.9mb 63f
8:15am 23 36 mph 1011.2mb 64f
7:55am 22 38 mph 1010.8mb 64f
7:15am 24 30 mph 1010.8mb 64f
6:55am 20 39 mph 1010.8mb 64f
6:15am 22 38 mph 1009.8mb 64f
5:55am 22 33 mph 1009.5mb 64f
5:15am 21 35 mph 1009.1mb 64f
4:55am 25 36 mph 1009.1mb 64f
4:15am 24 35 mph 1008.8mb 64f
3:55am 24 36 mph 1008.8mb 64f
3:15am 23 32 mph 1008.1mb 64f
2:55am 20 37 mph 1008.1mb 64f
2:15am 20 32 mph 1008.8mb 64f
1:55am 21 29 mph 1008.8mb 66f
1:15am 23 38 mph 1008.8mb 64f
12:55am 20 33 mph 1008.8mb 64f
12:15am 22 35 mph 1008.5mb 64f
Wed 09/20 11:55pm 21 37 mph 1008.8mb 66f
11:15pm 16 32 mph 1008.8mb 66f
10:55pm 21 33 mph 1008.5mb 66f
10:15pm 15 28 mph 1008.8mb 66f
9:55pm 18 24 mph 1008.8mb 66f
9:15pm 20 36 mph 1008.5mb 66f
8:55pm 20 32 mph 1008.5mb 66f
8:15pm 18 31 mph 1008.5mb 64f
7:55pm 24 39 mph 1008.5mb 64f
7:15pm 18 31 mph 1008.5mb 64f
6:55pm 20 31 mph 1008.5mb 64f
6:15pm 20 38 mph 1008.1mb 64f
5:55pm 20 31 mph 1008.1mb 64f
5:15pm 20 33 mph 1007.8mb 64f
4:55pm 17 38 mph 1007.8mb 64f
4:15pm 24 33 mph 1007.1mb 64f
3:55pm 21 29 mph 1007.5mb 64f
3:15pm 24 33 mph 1007.5mb 64f
2:55pm 23 30 mph 1007.8mb 64f
2:15pm 24 36 mph 1007.5mb 64f
1:55pm 16 30 mph 1007.8mb 64f
1:15pm 20 29 mph 1007.8mb 64f
12:55pm 17 24 mph 1007.8mb 64f
12:15pm 18 27 mph 1008.1mb 64f
11:55am 17 25 mph 1008.5mb 64f
11:15am 17 30 mph 1008.5mb 64f
10:55am 20 27 mph 1008.5mb 64f
10:15am 20 29 mph 1009.1mb 64f
9:55am 20 28 mph 1009.1mb 64f
9:15am 21 28 mph 1009.5mb 64f
8:55am 18 29 mph 1009.5mb 64f
8:15am 18 25 mph 1009.1mb 64f
7:55am 16 27 mph 1009.1mb 64f
7:15am 22
mph
1009.1mb 64f
6:55am 18 28 mph 1009.1mb 64f
6:15am 17 27 mph 1009.1mb 64f
5:55am 21 29 mph 1009.1mb 64f
5:15am 17 24 mph 1009.1mb 66f
4:55am 17 24 mph 1009.1mb 66f
4:15am 20 29 mph 1009.5mb 66f
3:55am 17 25 mph 1009.5mb 66f
3:15am 21
mph
1009.8mb 66f
2:55am 17 25 mph 1010.2mb 66f
2:15am 18 28 mph 1010.8mb 66f
1:55am 21 27 mph 1010.8mb 66f
1:15am 18
mph
1011.2mb 66f
12:55am 17 27 mph 1011.2mb 66f
12:15am 17
mph
1011.9mb 66f
Tue 09/19 11:55pm 17
mph
1012.2mb 66f
11:15pm 15 24 mph 1012.2mb 66f
10:55pm 14 21 mph 1012.5mb 66f
10:15pm 16
mph
1012.9mb 66f
9:55pm 16
mph
1012.9mb 66f
9:15pm 18 27 mph 1013.2mb 66f
8:55pm 18
mph
1013.2mb 66f
8:15pm 18 30 mph 1013.5mb 66f
7:55pm 18 25 mph 1013.2mb 66f
7:15pm 17 25 mph 1013.2mb 66f
6:55pm 20
mph
1013.2mb 66f
6:15pm 20
mph
1013.5mb 66f
5:55pm 12 23 mph 1014.2mb 66f
5:15pm 13
mph
1014.2mb 66f
4:55pm 13 22 mph 1014.6mb 66f
4:15pm 13 23 mph 1014.9mb 66f
3:55pm 17 25 mph 1014.6mb 66f
3:15pm 16 23 mph 1014.9mb 66f
2:55pm 17 25 mph 1014.9mb 66f
2:15pm 12 21 mph 1015.6mb 66f
1:55pm 12
mph
1015.6mb 66f
1:15pm 10 21 mph 1016.3mb 66f
12:55pm 13
mph
1016.9mb 66f
12:15pm 15
mph
1017.6mb 66f
11:55am 13
mph
1017.3mb 66f
11:15am 13 20 mph 1017.6mb 66f
10:55am 14
mph
1018mb 66f
10:15am 15
mph
1018.3mb 66f
9:55am 16
mph
1018.3mb 66f
9:15am 15 21 mph 1018.3mb 66f
8:55am 14
mph
1018.3mb 64f
8:15am 12
mph
1018.3mb 66f
7:55am 12
mph
1018.3mb 66f
7:15am 13
mph
1018.6mb 64f
6:55am 13 18 mph 1018.6mb 64f
6:15am 15 22 mph 1018.6mb 64f
5:55am 10 17 mph 1019mb 64f
5:15am 13 18 mph 1018.6mb 66f
4:55am 14
mph
1018.6mb 66f
4:15am 13
mph
1019mb 66f
3:55am 13 18 mph 1019mb 64f
3:15am 14
mph
1019.3mb 64f
2:55am 14 21 mph 1019.3mb 64f
1:55am 14
mph
1019.3mb 66f
1:15am 14 23 mph 1020mb 66f
12:55am 13 20 mph 1020mb 66f
12:15am 14
mph
1020.3mb 66f
Mon 09/18 11:55pm 14 21 mph 1020.3mb 66f
11:15pm 13
mph
1020.7mb 66f
10:55pm 10
mph
1021mb 66f
10:15pm 13
mph
1021mb 66f
9:55pm 10
mph
1021mb 66f
9:15pm 10
mph
1021.3mb 66f
8:55pm 10
mph
1021.3mb 66f
8:15pm 12
mph
1021mb 66f
7:55pm 10
mph
1021mb 66f
7:15pm 10
mph
1020.7mb 66f
6:55pm 10
mph
1020.3mb 66f
6:15pm 10
mph
1020.3mb 68f
5:55pm 9
mph
1020.3mb 68f
5:15pm 9
mph
1020.3mb 68f